# Tabular Observed and Forecast Hydrograph Information
#
# Location: Sacramento River - Colusa Bridge (CLUC1)
#
# File Generation Time: 09/04/2026 at 07:17 AM PDT
# Data Interval: 1 Hour
#
# Most Recent Date & Time of Maximum Observed: 08/31/2026 at 04:00 AM PDT
# Maximum Observed Stage: 42.38 Feet
# Maximum Observed Flow: 6068 cfs
#
# Earliest Date & Time of Maximum Forecast: 09/05/2026 at 05:00 AM PDT
# Maximum Forecast Stage: 42.20 Feet
# Maximum Forecast Flow: 5813 cfs
#
# OBSERVED
#
# Date & Time (Local) Stage (Feet) Flow (cfs) Trend Observed Status
# ---------------------------------------------------------------------------------
08/30/2026 07 AM PDT 42.26 5897 Normal
08/30/2026 08 AM PDT 42.26 5897 0 Normal
08/30/2026 09 AM PDT 42.25 5883 - Normal
08/30/2026 10 AM PDT 42.25 5883 0 Normal
08/30/2026 11 AM PDT 42.25 5883 0 Normal
08/30/2026 12 PM PDT 42.26 5897 + Normal
08/30/2026 01 PM PDT 42.26 5897 0 Normal
08/30/2026 02 PM PDT 42.25 5883 - Normal
08/30/2026 03 PM PDT 42.28 5925 + Normal
08/30/2026 04 PM PDT 42.28 5925 0 Normal
08/30/2026 05 PM PDT 42.30 5954 + Normal
08/30/2026 06 PM PDT 42.31 5968 + Normal
08/30/2026 07 PM PDT 42.32 5982 + Normal
08/30/2026 08 PM PDT 42.33 5996 + Normal
08/30/2026 09 PM PDT 42.35 6025 + Normal
08/30/2026 10 PM PDT 42.34 6011 - Normal
08/30/2026 11 PM PDT 42.35 6025 + Normal
08/31/2026 12 AM PDT 42.35 6025 0 Normal
08/31/2026 01 AM PDT 42.37 6054 + Normal
08/31/2026 02 AM PDT 42.38 6068 + Normal
08/31/2026 03 AM PDT 42.38 6068 0 Normal
08/31/2026 04 AM PDT 42.38 6068 0 Normal
08/31/2026 05 AM PDT 42.37 6054 - Normal
08/31/2026 06 AM PDT 42.37 6054 0 Normal
08/31/2026 07 AM PDT 42.36 6039 - Normal
08/31/2026 08 AM PDT 42.36 6039 0 Normal
08/31/2026 09 AM PDT 42.36 6039 0 Normal
08/31/2026 10 AM PDT 42.34 6011 - Normal
08/31/2026 11 AM PDT 42.34 6011 0 Normal
08/31/2026 12 PM PDT 42.33 5996 - Normal
08/31/2026 01 PM PDT 42.30 5954 - Normal
08/31/2026 02 PM PDT 42.29 5940 - Normal
08/31/2026 03 PM PDT 42.26 5897 - Normal
08/31/2026 04 PM PDT 42.24 5869 - Normal
08/31/2026 05 PM PDT 42.24 5869 0 Normal
08/31/2026 06 PM PDT 42.23 5855 - Normal
08/31/2026 07 PM PDT 42.23 5855 0 Normal
08/31/2026 08 PM PDT 42.22 5841 - Normal
08/31/2026 09 PM PDT 42.20 5813 - Normal
08/31/2026 10 PM PDT 42.19 5799 - Normal
08/31/2026 11 PM PDT 42.17 5772 - Normal
09/01/2026 12 AM PDT 42.14 5730 - Normal
09/01/2026 01 AM PDT 42.14 5730 0 Normal
09/01/2026 02 AM PDT 42.15 5744 + Normal
09/01/2026 03 AM PDT 42.15 5744 0 Normal
09/01/2026 04 AM PDT 42.15 5744 0 Normal
09/01/2026 05 AM PDT 42.14 5730 - Normal
09/01/2026 06 AM PDT 42.14 5730 0 Normal
09/01/2026 07 AM PDT 42.12 5703 - Normal
09/01/2026 08 AM PDT 42.13 5717 + Normal
09/01/2026 09 AM PDT 42.12 5703 - Normal
09/01/2026 10 AM PDT 42.11 5689 - Normal
09/01/2026 11 AM PDT 42.10 5676 - Normal
09/01/2026 12 PM PDT 42.09 5662 - Normal
09/01/2026 01 PM PDT 42.07 5635 - Normal
09/01/2026 02 PM PDT 42.06 5621 - Normal
09/01/2026 03 PM PDT 42.03 5581 - Normal
09/01/2026 04 PM PDT 42.03 5581 0 Normal
09/01/2026 05 PM PDT 42.01 5554 - Normal
09/01/2026 06 PM PDT 42.00 5541 - Normal
09/01/2026 07 PM PDT 41.98 5521 - Normal
09/01/2026 08 PM PDT 41.97 5511 - Normal
09/01/2026 09 PM PDT 41.96 5501 - Normal
09/01/2026 10 PM PDT 41.96 5501 0 Normal
09/01/2026 11 PM PDT 41.94 5482 - Normal
09/02/2026 12 AM PDT 41.94 5482 0 Normal
09/02/2026 01 AM PDT 41.94 5482 0 Normal
09/02/2026 02 AM PDT 41.93 5472 - Normal
09/02/2026 03 AM PDT 41.92 5462 - Normal
09/02/2026 04 AM PDT 41.91 5452 - Normal
09/02/2026 05 AM PDT 41.90 5442 - Normal
09/02/2026 06 AM PDT 41.91 5452 + Normal
09/02/2026 07 AM PDT 41.90 5442 - Normal
09/02/2026 08 AM PDT 41.91 5452 + Normal
09/02/2026 09 AM PDT 41.90 5442 - Normal
09/02/2026 10 AM PDT 41.90 5442 0 Normal
09/02/2026 11 AM PDT 41.90 5442 0 Normal
09/02/2026 12 PM PDT 41.91 5452 + Normal
09/02/2026 01 PM PDT 41.92 5462 + Normal
09/02/2026 02 PM PDT 41.91 5452 - Normal
09/02/2026 03 PM PDT 41.91 5452 0 Normal
09/02/2026 04 PM PDT 41.92 5462 + Normal
09/02/2026 05 PM PDT 41.94 5482 + Normal
09/02/2026 06 PM PDT 41.93 5472 - Normal
09/02/2026 07 PM PDT 41.95 5492 + Normal
09/02/2026 08 PM PDT 41.95 5492 0 Normal
09/02/2026 09 PM PDT 41.97 5511 + Normal
09/02/2026 10 PM PDT 41.97 5511 0 Normal
09/02/2026 11 PM PDT 41.96 5501 - Normal
09/03/2026 12 AM PDT 41.96 5501 0 Normal
09/03/2026 01 AM PDT 41.96 5501 0 Normal
09/03/2026 02 AM PDT 41.97 5511 + Normal
09/03/2026 03 AM PDT 41.98 5521 + Normal
09/03/2026 04 AM PDT 42.00 5541 + Normal
09/03/2026 05 AM PDT 41.99 5531 - Normal
09/03/2026 06 AM PDT 41.99 5531 0 Normal
09/03/2026 07 AM PDT 42.00 5541 + Normal
09/03/2026 08 AM PDT 42.01 5554 + Normal
09/03/2026 09 AM PDT 42.02 5568 + Normal
09/03/2026 10 AM PDT 42.02 5568 0 Normal
09/03/2026 11 AM PDT 42.02 5568 0 Normal
09/03/2026 12 PM PDT 42.02 5568 0 Normal
09/03/2026 01 PM PDT 42.03 5581 + Normal
09/03/2026 02 PM PDT 42.03 5581 0 Normal
09/03/2026 03 PM PDT 42.03 5581 0 Normal
09/03/2026 04 PM PDT 42.03 5581 0 Normal
09/03/2026 05 PM PDT 42.04 5594 + Normal
09/03/2026 06 PM PDT 42.04 5594 0 Normal
09/03/2026 07 PM PDT 42.05 5608 + Normal
09/03/2026 08 PM PDT 42.04 5594 - Normal
09/03/2026 09 PM PDT 42.06 5621 + Normal
09/03/2026 10 PM PDT 42.06 5621 0 Normal
09/03/2026 11 PM PDT 42.05 5608 - Normal
09/04/2026 12 AM PDT 42.06 5621 + Normal
09/04/2026 01 AM PDT 42.07 5635 + Normal
09/04/2026 02 AM PDT 42.06 5621 - Normal
09/04/2026 03 AM PDT 42.08 5648 + Normal
09/04/2026 04 AM PDT 42.09 5662 + Normal
09/04/2026 05 AM PDT 42.09 5662 0 Normal
09/04/2026 06 AM PDT 42.09 5662 0 Normal
09/04/2026 07 AM PDT 42.09 5662 0 Normal
#
# FORECAST
#
# Date & Time (Local) Stage (Feet) Flow (cfs) Trend Forecast Status
# ---------------------------------------------------------------------------------
09/04/2026 08 AM PDT 42.10 5676 Normal
09/04/2026 09 AM PDT 42.10 5676 0 Normal
09/04/2026 10 AM PDT 42.10 5676 0 Normal
09/04/2026 11 AM PDT 42.11 5689 + Normal
09/04/2026 12 PM PDT 42.11 5689 0 Normal
09/04/2026 01 PM PDT 42.12 5703 + Normal
09/04/2026 02 PM PDT 42.12 5703 0 Normal
09/04/2026 03 PM PDT 42.13 5717 + Normal
09/04/2026 04 PM PDT 42.13 5717 0 Normal
09/04/2026 05 PM PDT 42.14 5730 + Normal
09/04/2026 06 PM PDT 42.15 5744 + Normal
09/04/2026 07 PM PDT 42.16 5758 + Normal
09/04/2026 08 PM PDT 42.16 5758 0 Normal
09/04/2026 09 PM PDT 42.17 5772 + Normal
09/04/2026 10 PM PDT 42.18 5785 + Normal
09/04/2026 11 PM PDT 42.18 5785 0 Normal
09/05/2026 12 AM PDT 42.19 5799 + Normal
09/05/2026 01 AM PDT 42.19 5799 0 Normal
09/05/2026 02 AM PDT 42.19 5799 0 Normal
09/05/2026 03 AM PDT 42.19 5799 0 Normal
09/05/2026 04 AM PDT 42.19 5799 0 Normal
09/05/2026 05 AM PDT 42.20 5813 + Normal
09/05/2026 06 AM PDT 42.20 5813 0 Normal
09/05/2026 07 AM PDT 42.20 5813 0 Normal
09/05/2026 08 AM PDT 42.20 5813 0 Normal
09/05/2026 09 AM PDT 42.20 5813 0 Normal
09/05/2026 10 AM PDT 42.20 5813 0 Normal
09/05/2026 11 AM PDT 42.20 5813 0 Normal
09/05/2026 12 PM PDT 42.20 5813 0 Normal
09/05/2026 01 PM PDT 42.20 5813 0 Normal
09/05/2026 02 PM PDT 42.20 5813 0 Normal
09/05/2026 03 PM PDT 42.20 5813 0 Normal
09/05/2026 04 PM PDT 42.20 5813 0 Normal
09/05/2026 05 PM PDT 42.19 5799 - Normal
09/05/2026 06 PM PDT 42.19 5799 0 Normal
09/05/2026 07 PM PDT 42.19 5799 0 Normal
09/05/2026 08 PM PDT 42.18 5785 - Normal
09/05/2026 09 PM PDT 42.18 5785 0 Normal
09/05/2026 10 PM PDT 42.17 5772 - Normal
09/05/2026 11 PM PDT 42.17 5772 0 Normal
09/06/2026 12 AM PDT 42.16 5758 - Normal
09/06/2026 01 AM PDT 42.16 5758 0 Normal
09/06/2026 02 AM PDT 42.15 5744 - Normal
09/06/2026 03 AM PDT 42.14 5730 - Normal
09/06/2026 04 AM PDT 42.14 5730 0 Normal
09/06/2026 05 AM PDT 42.13 5717 - Normal
09/06/2026 06 AM PDT 42.12 5703 - Normal
09/06/2026 07 AM PDT 42.11 5689 - Normal
09/06/2026 08 AM PDT 42.10 5676 - Normal
09/06/2026 09 AM PDT 42.08 5648 - Normal
09/06/2026 10 AM PDT 42.07 5635 - Normal
09/06/2026 11 AM PDT 42.05 5608 - Normal
09/06/2026 12 PM PDT 42.03 5581 - Normal
09/06/2026 01 PM PDT 42.02 5568 - Normal
09/06/2026 02 PM PDT 41.99 5531 - Normal
09/06/2026 03 PM PDT 41.97 5511 - Normal
09/06/2026 04 PM PDT 41.95 5492 - Normal
09/06/2026 05 PM PDT 41.92 5462 - Normal
09/06/2026 06 PM PDT 41.90 5442 - Normal
09/06/2026 07 PM PDT 41.88 5423 - Normal
09/06/2026 08 PM PDT 41.85 5394 - Normal
09/06/2026 09 PM PDT 41.84 5384 - Normal
09/06/2026 10 PM PDT 41.82 5365 - Normal
09/06/2026 11 PM PDT 41.80 5345 - Normal
09/07/2026 12 AM PDT 41.78 5326 - Normal
09/07/2026 01 AM PDT 41.77 5316 - Normal
09/07/2026 02 AM PDT 41.75 5297 - Normal
09/07/2026 03 AM PDT 41.74 5288 - Normal
09/07/2026 04 AM PDT 41.73 5278 - Normal
09/07/2026 05 AM PDT 41.72 5269 - Normal
09/07/2026 06 AM PDT 41.71 5259 - Normal
09/07/2026 07 AM PDT 41.70 5250 - Normal
09/07/2026 08 AM PDT 41.69 5240 - Normal
09/07/2026 09 AM PDT 41.68 5231 - Normal
09/07/2026 10 AM PDT 41.67 5221 - Normal
09/07/2026 11 AM PDT 41.67 5221 0 Normal
09/07/2026 12 PM PDT 41.66 5212 - Normal
09/07/2026 01 PM PDT 41.65 5202 - Normal
09/07/2026 02 PM PDT 41.65 5202 0 Normal
09/07/2026 03 PM PDT 41.64 5193 - Normal
09/07/2026 04 PM PDT 41.64 5193 0 Normal
09/07/2026 05 PM PDT 41.63 5184 - Normal
09/07/2026 06 PM PDT 41.63 5184 0 Normal
09/07/2026 07 PM PDT 41.63 5184 0 Normal
09/07/2026 08 PM PDT 41.62 5174 - Normal
09/07/2026 09 PM PDT 41.62 5174 0 Normal
09/07/2026 10 PM PDT 41.62 5174 0 Normal
09/07/2026 11 PM PDT 41.62 5174 0 Normal
09/08/2026 12 AM PDT 41.61 5165 - Normal
09/08/2026 01 AM PDT 41.61 5165 0 Normal
09/08/2026 02 AM PDT 41.61 5165 0 Normal
09/08/2026 03 AM PDT 41.61 5165 0 Normal
09/08/2026 04 AM PDT 41.61 5165 0 Normal
09/08/2026 05 AM PDT 41.60 5156 - Normal
09/08/2026 06 AM PDT 41.60 5156 0 Normal
09/08/2026 07 AM PDT 41.60 5156 0 Normal
09/08/2026 08 AM PDT 41.59 5146 - Normal
09/08/2026 09 AM PDT 41.58 5137 - Normal
09/08/2026 10 AM PDT 41.57 5128 - Normal
09/08/2026 11 AM PDT 41.56 5118 - Normal
09/08/2026 12 PM PDT 41.54 5100 - Normal
09/08/2026 01 PM PDT 41.52 5081 - Normal
09/08/2026 02 PM PDT 41.50 5063 - Normal
09/08/2026 03 PM PDT 41.48 5044 - Normal
09/08/2026 04 PM PDT 41.47 5034 - Normal
09/08/2026 05 PM PDT 41.45 5014 - Normal
09/08/2026 06 PM PDT 41.43 4995 - Normal
09/08/2026 07 PM PDT 41.41 4976 - Normal
09/08/2026 08 PM PDT 41.39 4957 - Normal
09/08/2026 09 PM PDT 41.37 4937 - Normal
09/08/2026 10 PM PDT 41.35 4918 - Normal
09/08/2026 11 PM PDT 41.34 4909 - Normal
09/09/2026 12 AM PDT 41.32 4890 - Normal
09/09/2026 01 AM PDT 41.31 4880 - Normal
09/09/2026 02 AM PDT 41.29 4862 - Normal
09/09/2026 03 AM PDT 41.28 4852 - Normal
09/09/2026 04 AM PDT 41.27 4843 - Normal
09/09/2026 05 AM PDT 41.26 4833 - Normal
#
# NOTE 1: Stages are rounded to the nearest hundredth (.01) of a foot.
# NOTE 2: Flows are rounded to the nearest (1) cfs.
# NOTE 3: Trends are determined using hourly change in unrounded stage and flow.
# NOTE 4: Maximum Values are determined using unrounded stage and flow.
|